Weather History for KBOK - November, 2012

Change the Weather History Date:

Sunday, November 4, 2012

  Actual Average (KCEC) Record (KCEC)
Temperature  
Mean Temperature 62 °F 52 °F  
Max Temperature 70 °F 58 °F 72 °F (1986)
Min Temperature 54 °F 45 °F 30 °F (2002)
Degree Days  
Heating Degree Days 3 13  
Month to date heating degree days 52  
Since 1 July heating degree days 1216  
Cooling Degree Days 0 0  
Month to date cooling degree days 0  
Year to date cooling degree days 0  
Growing Degree Days 12 (Base 50)    
Moisture  
Dew Point 60 °F    
Average Humidity 90    
Maximum Humidity 100    
Minimum Humidity 68    
Precipitation  
Precipitation 0.00 in 0.32 in 1.67 in (1958)
Month to date precipitation 1.29  
Year to date precipitation 44.32  
Since 1 July precipitation 7.39  
Snow  
Snow 0.00 in - - ()
Month to date snowfall  
Since 1 July snowfall  
Since 1 September snowfall  
Snow Depth -    
Sea Level Pressure  
Sea Level Pressure 30.29 in    
Wind  
Wind Speed 2 mph (NNW)    
Max Wind Speed 10 mph    
Max Gust Speed -    
Visibility 7 miles    
Events      
T = Trace of Precipitation, MM = Missing Value Source: NWS Daily Summary

Daily Weather History Graph

Daily Weather History Graph

Search for Another Location

Airport or City:

Trip Planner

Search our weather history database for the weather conditions in past years. The results will help you decide how hot, cold, wet, or windy it might be!

Date:

Astronomy

Nov. 04, 2012 Rise Set
Actual Time 6:54 AM PST 5:06 PM PST
Civil Twilight 6:25 AM PST 5:35 PM PST
Nautical Twilight 5:51 AM PST 6:09 PM PST
Astronomical Twilight 5:19 AM PST 6:41 PM PST
Moon 9:49 PM PST 11:42 AM PST
Length of Visible Light 11h 10m
Length of Day
10h 12m
Waning Gibbous, 71% of the Moon is Illuminated
Nov 4
Waning Gibbous
Nov 6
Last Quarter
Nov 13
New
Nov 20
First Quarter
Nov 28
Full

Hourly Weather History & Observations

Time (PST) Temp. Dew Point Humidity Pressure Visibility Wind Dir Wind Speed Gust Speed Precip Events Conditions
12:56 AM 56.8 °F - N/A% 30.23 in 10.0 mi East 3.5 mph - N/A   Overcast
1:56 AM 54.9 °F - N/A% 30.24 in 10.0 mi Calm Calm - N/A   Scattered Clouds
1:56 AM 54.9 °F - N/A% 30.25 in 10.0 mi Calm Calm - N/A   Mostly Cloudy
2:56 AM 55.9 °F - N/A% 30.26 in 10.0 mi Calm Calm - N/A   Overcast
3:56 AM 55.9 °F - N/A% 30.25 in 10.0 mi Calm Calm - N/A   Overcast
4:56 AM 55.9 °F - N/A% 30.26 in 10.0 mi Calm Calm - N/A   Mostly Cloudy
5:56 AM 55.9 °F - N/A% 30.26 in 10.0 mi East 3.5 mph - N/A   Overcast
6:56 AM 57.9 °F 57.9 °F 100% 30.27 in 10.0 mi Variable 4.6 mph - N/A   Overcast
7:56 AM 56.8 °F - N/A% 30.30 in 10.0 mi Calm Calm - N/A   Overcast
8:56 AM 61.0 °F 61.0 °F 100% 30.32 in 10.0 mi Calm Calm - N/A   Overcast
9:14 AM 60.8 °F 60.8 °F 100% 30.32 in 1.8 mi Calm Calm - N/A   Overcast
9:29 AM 62.6 °F 62.6 °F 100% 30.32 in 2.5 mi Calm Calm - N/A   Overcast
9:36 AM 62.6 °F 62.6 °F 100% 30.32 in 3.0 mi Calm Calm - N/A   Overcast
9:56 AM 64.9 °F 59.9 °F 84% 30.32 in 6.0 mi Variable 3.5 mph - N/A   Haze
10:56 AM 64.9 °F 59.9 °F 84% 30.32 in 5.0 mi WNW 6.9 mph - N/A   Haze
11:56 AM 66.9 °F 61.0 °F 81% 30.30 in 7.0 mi WNW 4.6 mph - N/A   Clear
12:56 PM 66.9 °F 59.9 °F 78% 30.29 in 5.0 mi Variable 3.5 mph - N/A   Haze
1:56 PM 70.9 °F 59.9 °F 68% 30.28 in 7.0 mi NW 6.9 mph - N/A   Clear
2:56 PM 70.0 °F 59.9 °F 70% 30.28 in 10.0 mi NNW 10.4 mph - N/A   Clear
3:56 PM 68.0 °F 61.0 °F 78% 30.29 in 9.0 mi NW 8.1 mph - N/A   Clear
4:56 PM 63.0 °F 63.0 °F 100% 30.28 in 8.0 mi ESE 3.5 mph - N/A   Clear
5:56 PM 59.9 °F 59.9 °F 100% 30.30 in 5.0 mi Calm Calm - N/A   Clear
6:56 PM 57.9 °F 57.9 °F 100% 30.31 in 6.0 mi Calm Calm - N/A   Clear
7:56 PM 57.9 °F - N/A% 30.30 in 6.0 mi Calm Calm - N/A   Haze
8:56 PM 57.9 °F - N/A% 30.30 in 6.0 mi NW 4.6 mph - N/A   Haze
9:56 PM 55.9 °F - N/A% 30.29 in 6.0 mi Calm Calm - N/A   Haze
10:56 PM 55.9 °F - N/A% 30.29 in 1.8 mi Calm Calm - N/A   Clear
10:58 PM 55.4 °F - N/A% 30.28 in 0.8 mi Calm Calm - N/A   Clear